Weather History for Columbia Airport, CA

Change the Weather History Date:

Thursday, May 1, 2014

  Actual Average (KMOD) Record (KMOD)
Temperature  
Mean Temperature 65 °F -  
Max Temperature 84 °F 79 °F 95 °F (2014)
Min Temperature 46 °F 52 °F 40 °F (1953)
Degree Days  
Heating Degree Days 0 2  
Month to date heating degree days 2  
Since 1 July heating degree days 2136  
Cooling Degree Days 0 3  
Month to date cooling degree days 3  
Year to date cooling degree days 47  
Growing Degree Days 15 (Base 50)    
Moisture  
Dew Point 41 °F    
Average Humidity 45    
Maximum Humidity 82    
Minimum Humidity 20    
Precipitation  
Precipitation 0.00 in 0.03 in 0.45 in (1977)
Month to date precipitation 0.03  
Year to date precipitation 8.03  
Since 1 July precipitation 12.39  
Snow  
Snow 0.00 in - - ()
Month to date snowfall  
Since 1 July snowfall  
Snow Depth -    
Sea Level Pressure  
Sea Level Pressure 30.13 in    
Wind  
Wind Speed 2 mph (ENE)    
Max Wind Speed 10 mph    
Max Gust Speed 16 mph    
Visibility 10 miles    
Events      
T = Trace of Precipitation, MM = Missing Value Source: NWS Daily Summary

Daily Weather History Graph

Daily Weather History Graph

Search for Another Location

Airport:

Trip Planner

Search our weather history database for the weather conditions in past years. The results will help you decide how hot, cold, wet, or windy it might be!

Date:

Astronomy

May. 01, 2014 Rise Set
Actual Time 6:05 AM PDT 7:52 PM PDT
Civil Twilight 5:37 AM PDT 8:21 PM PDT
Nautical Twilight 5:02 AM PDT 8:55 PM PDT
Astronomical Twilight 4:26 AM PDT 9:32 PM PDT
Moon 7:57 AM PDT 10:29 PM PDT
Length of Visible Light 14h 44m
Length of Day
13h 47m
Waxing Crescent, 7% of the Moon is Illuminated
May 1
Waxing Crescent
May 6
First Quarter
May 14
Full
May 21
Last Quarter
May 28
New

Hourly Weather History & Observations

Time (PDT) Temp. Dew Point Humidity Pressure Visibility Wind Dir Wind Speed Gust Speed Precip Events Conditions
12:15 AM 53.6 °F 48.2 °F 82% 30.11 in 10.0 mi Calm Calm - N/A   Clear
12:35 AM 53.6 °F 48.2 °F 82% 30.10 in 10.0 mi North 3.5 mph - N/A   Clear
12:55 AM 53.6 °F 46.4 °F 77% 30.10 in 10.0 mi Calm Calm - N/A   Clear
1:15 AM 53.6 °F 46.4 °F 77% 30.10 in 10.0 mi Calm Calm - N/A   Clear
1:35 AM 53.6 °F 46.4 °F 77% 30.10 in 10.0 mi Calm Calm - N/A   Clear
1:55 AM 53.6 °F 46.4 °F 77% 30.10 in 10.0 mi Calm Calm - N/A   Clear
2:15 AM 51.8 °F 46.4 °F 82% 30.09 in 10.0 mi Calm Calm - N/A   Clear
2:35 AM 51.8 °F 44.6 °F 76% 30.09 in 10.0 mi Calm Calm - N/A   Clear
2:55 AM 50.0 °F 42.8 °F 76% 30.09 in 10.0 mi NNE 3.5 mph - N/A   Clear
3:15 AM 50.0 °F 41.0 °F 71% 30.09 in 10.0 mi Calm Calm - N/A   Clear
3:35 AM 48.2 °F 41.0 °F 76% 30.09 in 10.0 mi NNE 4.6 mph - N/A   Clear
3:55 AM 48.2 °F 39.2 °F 71% 30.09 in 10.0 mi Calm Calm - N/A   Clear
4:15 AM 48.2 °F 39.2 °F 71% 30.10 in 10.0 mi Calm Calm - N/A   Clear
4:35 AM 48.2 °F 39.2 °F 71% 30.09 in 10.0 mi NNE 5.8 mph - N/A   Clear
4:55 AM 48.2 °F 39.2 °F 71% 30.09 in 10.0 mi Calm Calm - N/A   Clear
5:15 AM 48.2 °F 39.2 °F 71% 30.10 in 10.0 mi Calm Calm - N/A   Clear
5:35 AM 46.4 °F 39.2 °F 76% 30.10 in 10.0 mi Calm Calm - N/A   Clear
5:55 AM 46.4 °F 37.4 °F 71% 30.10 in 10.0 mi Calm Calm - N/A   Clear
6:15 AM 46.4 °F 37.4 °F 71% 30.11 in 10.0 mi Calm Calm - N/A   Clear
6:35 AM 48.2 °F 39.2 °F 71% 30.11 in 10.0 mi NNE 3.5 mph - N/A   Clear
6:55 AM 51.8 °F 39.2 °F 62% 30.12 in 10.0 mi Calm Calm - N/A   Clear
7:35 AM 62.6 °F 44.6 °F 52% 30.12 in 10.0 mi Calm Calm - N/A   Clear
7:55 AM 66.2 °F 42.8 °F 43% 30.13 in 10.0 mi Calm Calm - N/A   Clear
8:15 AM 68.0 °F 41.0 °F 37% 30.13 in 10.0 mi Calm Calm - N/A   Clear
8:35 AM 69.8 °F 41.0 °F 35% 30.14 in 10.0 mi Calm Calm - N/A   Clear
8:55 AM 73.4 °F 39.2 °F 29% 30.14 in 10.0 mi Calm Calm - N/A   Clear
9:15 AM 75.2 °F 42.8 °F 31% 30.15 in 10.0 mi East 3.5 mph - N/A   Clear
9:35 AM 77.0 °F 42.8 °F 29% 30.15 in 10.0 mi ENE 3.5 mph - N/A   Clear
9:55 AM 77.0 °F 42.8 °F 29% 30.15 in 10.0 mi ENE 4.6 mph - N/A   Clear
10:15 AM 77.0 °F 39.2 °F 26% 30.16 in 10.0 mi ENE 3.5 mph - N/A   Clear
10:35 AM 77.0 °F 42.8 °F 29% 30.16 in 10.0 mi Calm Calm - N/A   Clear
10:55 AM 77.0 °F 41.0 °F 28% 30.17 in 10.0 mi ENE 4.6 mph - N/A   Clear
11:15 AM 78.8 °F 37.4 °F 23% 30.17 in 10.0 mi East 4.6 mph - N/A   Clear
11:35 AM 80.6 °F 37.4 °F 21% 30.17 in 10.0 mi East 5.8 mph - N/A   Clear
11:55 AM 80.6 °F 37.4 °F 21% 30.17 in 10.0 mi Calm Calm - N/A   Clear
12:15 PM 82.4 °F 42.8 °F 25% 30.17 in 10.0 mi East 5.8 mph - N/A   Clear
12:35 PM 82.4 °F 44.6 °F 26% 30.17 in 10.0 mi Calm Calm - N/A   Clear
12:55 PM 82.4 °F 44.6 °F 26% 30.16 in 10.0 mi East 8.1 mph - N/A   Clear
1:15 PM 84.2 °F 42.8 °F 23% 30.16 in 10.0 mi East 9.2 mph - N/A   Clear
1:35 PM 84.2 °F 44.6 °F 25% 30.16 in 10.0 mi East 6.9 mph - N/A   Clear
1:55 PM 84.2 °F 39.2 °F 20% 30.16 in 10.0 mi East 6.9 mph - N/A   Clear
2:15 PM 84.2 °F 39.2 °F 20% 30.15 in 10.0 mi East 8.1 mph - N/A   Clear
2:55 PM 84.2 °F 42.8 °F 23% 30.15 in 10.0 mi East 6.9 mph - N/A   Clear
3:15 PM 84.2 °F 42.8 °F 23% 30.14 in 10.0 mi East 8.1 mph - N/A   Clear
3:35 PM 84.2 °F 44.6 °F 25% 30.14 in 10.0 mi East 6.9 mph - N/A   Clear
3:55 PM 84.2 °F 44.6 °F 25% 30.13 in 10.0 mi East 10.4 mph 16.1 mph N/A   Clear
4:15 PM 84.2 °F 39.2 °F 20% 30.13 in 10.0 mi East 6.9 mph 16.1 mph N/A   Clear
4:35 PM 82.4 °F 39.2 °F 21% 30.13 in 10.0 mi East 9.2 mph - N/A   Clear
4:55 PM 82.4 °F 39.2 °F 21% 30.13 in 10.0 mi ESE 9.2 mph - N/A   Clear
5:15 PM 82.4 °F 39.2 °F 21% 30.12 in 10.0 mi East 5.8 mph - N/A   Clear
5:35 PM 80.6 °F 35.6 °F 20% 30.13 in 10.0 mi East 6.9 mph - N/A   Clear
5:55 PM 80.6 °F 35.6 °F 20% 30.12 in 10.0 mi East 4.6 mph - N/A   Clear
6:15 PM 80.6 °F 35.6 °F 20% 30.12 in 10.0 mi East 6.9 mph - N/A   Clear
6:35 PM 77.0 °F 37.4 °F 24% 30.12 in 10.0 mi East 5.8 mph - N/A   Clear
6:55 PM 75.2 °F 35.6 °F 24% 30.12 in 10.0 mi East 6.9 mph - N/A   Clear
7:15 PM 73.4 °F 37.4 °F 27% 30.12 in 10.0 mi East 5.8 mph - N/A   Clear
7:35 PM 71.6 °F 37.4 °F 29% 30.13 in 10.0 mi North 3.5 mph - N/A   Clear
7:55 PM 66.2 °F 39.2 °F 37% 30.13 in 10.0 mi NNE 3.5 mph - N/A   Clear
8:15 PM 64.4 °F 41.0 °F 42% 30.13 in 10.0 mi Calm Calm - N/A   Clear
8:35 PM 62.6 °F 41.0 °F 45% 30.14 in 10.0 mi Calm Calm - N/A   Clear
8:55 PM 62.6 °F 39.2 °F 42% 30.14 in 10.0 mi Calm Calm - N/A   Clear
9:15 PM 60.8 °F 41.0 °F 48% 30.14 in 10.0 mi Calm Calm - N/A   Clear
9:35 PM 59.0 °F 41.0 °F 51% 30.14 in 10.0 mi Calm Calm - N/A   Clear
9:55 PM 59.0 °F 41.0 °F 51% 30.14 in 10.0 mi NNE 3.5 mph - N/A   Clear
10:15 PM 57.2 °F 41.0 °F 55% 30.14 in 10.0 mi Calm Calm - N/A   Clear
10:35 PM 57.2 °F 41.0 °F 55% 30.14 in 10.0 mi Calm Calm - N/A   Clear
10:55 PM 55.4 °F 41.0 °F 58% 30.14 in 10.0 mi NNE 3.5 mph - N/A   Clear
11:15 PM 55.4 °F 42.8 °F 63% 30.14 in 10.0 mi NNE 3.5 mph - N/A   Clear
11:35 PM 55.4 °F 42.8 °F 63% 30.13 in 10.0 mi Calm Calm - N/A   Clear
11:55 PM 53.6 °F 42.8 °F 67% 30.13 in 10.0 mi NNE 3.5 mph - N/A   Clear